This is the latest recevied weather packets stored in our database for station/object W5HKR. If no packets are shown the sender has not sent any weather packets the latest 1 day(s).
| Time | Temp. | Humidity | Pressure | Rain* | Wind** | Luminosity | Snow |
|---|---|---|---|---|---|---|---|
| 1777989478 | 21.11° C | 92% | 980.9 hPa | 0 mm | 5.36 m/s, 266° | - | - |
| 1777989205 | 21.11° C | 92% | 980.7 hPa | 0 mm | 5.36 m/s, 263° | - | - |
| 1777988906 | 18.33° C | 91% | 990.6 hPa | 0 mm | 5.36 m/s, 267° | - | - |
| 1777988607 | 21.11° C | 92% | 980.6 hPa | 0 mm | 4.47 m/s, 266° | - | - |
| 1777988396 | 21.11° C | 92% | 980.7 hPa | 0 mm | 5.36 m/s, 262° | - | - |
| 1777988309 | 18.33° C | 91% | 990.6 hPa | 0 mm | 4.47 m/s, 268° | - | - |
| 1777988006 | 21.11° C | 92% | 980.6 hPa | 0 mm | 4.47 m/s, 271° | - | - |
| 1777987706 | 18.33° C | 91% | 990.6 hPa | 0 mm | 4.47 m/s, 267° | - | - |
| 1777987406 | 21.11° C | 92% | 980.4 hPa | 0 mm | 5.36 m/s, 266° | - | - |
| 1777987317 | 18.33° C | 91% | 990.6 hPa | 0 mm | 4.47 m/s, 264° | - | - |
| 1777987106 | 18.33° C | 91% | 990.6 hPa | 0 mm | 4.02 m/s, 271° | - | - |
| 1777986806 | 21.11° C | 92% | 980.5 hPa | 0 mm | 5.36 m/s, 260° | - | - |
| 1777986507 | 18.33° C | 91% | 990.6 hPa | 0 mm | 4.47 m/s, 266° | - | - |
| 1777986237 | 21.11° C | 92% | 980.4 hPa | 0 mm | 4.47 m/s, 267° | - | - |
| 1777986206 | 18.33° C | 91% | 990.6 hPa | 0 mm | 5.36 m/s, 268° | - | - |
| 1777985906 | 21.11° C | 92% | 980.4 hPa | 0 mm | 4.47 m/s, 269° | - | - |
| 1777985606 | 18.33° C | 91% | 990.6 hPa | 0 mm | 4.47 m/s, 262° | - | - |
| 1777985157 | 18.33° C | 91% | 990.6 hPa | 0 mm | 4.47 m/s, 267° | - | - |
| 1777985007 | 21.11° C | 91% | 980.6 hPa | 0 mm | 4.47 m/s, 267° | - | - |
| 1777984707 | 18.33° C | 91% | 990.6 hPa | 0 mm | 4.47 m/s, 266° | - | - |
| 1777984407 | 18.33° C | 91% | 990.6 hPa | 0 mm | 4.47 m/s, 271° | - | - |
| 1777984077 | 21.11° C | 91% | 980.4 hPa | 0 mm | 4.47 m/s, 271° | - | - |
| 1777983806 | 21.11° C | 91% | 980 hPa | 0 mm | 5.36 m/s, 268° | - | - |
| 1777983507 | - | - | - | - | 4.47 m/s, 276° | - | - |
| 1777983506 | 18.33° C | 91% | 990.6 hPa | 0 mm | 4.47 m/s, 276° | - | - |
* Rain latest hour (hover to see other rain measurements)
** Current wind speed in m/s (hover to see current wind gust speed)